Location: Alpha Ridge Park
(39.3209°N, 76.9128°W)
Time: 14:36:00
(UTC-04:00)

Courier 1B - All Passes

Search period start: 22 May 2019 00:00
Search period end: 01 June 2019 00:00
Orbit: 962 x 1209 km, 28.3° (Epoch: 21 May)

Date Brightness Start Highest point End Pass type
(mag) Time Alt. Az. Time Alt. Az. Time Alt. Az.
22 May - 07:29:13 10° SSW 07:33:47 20° SSE 07:38:20 10° ESE daylight
22 May - 09:21:24 10° SW 09:26:57 31° S 09:32:36 10° ESE daylight
22 May - 11:14:50 10° WSW 11:20:14 28° S 11:25:49 10° SE daylight
22 May - 13:09:44 10° WSW 13:13:25 15° SSW 13:17:13 10° S daylight
23 May - 06:36:21 10° SSW 06:40:17 17° SSE 06:44:11 10° ESE daylight
23 May - 08:27:59 10° SW 08:33:25 29° S 08:38:52 10° ESE daylight
23 May - 10:21:11 10° WSW 10:26:40 30° S 10:32:19 10° SE daylight
23 May - 12:15:31 10° WSW 12:19:53 19° SSW 12:24:23 10° SSE daylight
24 May - 05:43:53 10° S 05:46:48 13° SSE 05:49:41 10° SE daylight
24 May - 07:34:36 10° SW 07:39:53 26° SSE 07:45:06 10° ESE daylight
24 May - 09:27:34 10° WSW 09:33:08 31° S 09:38:45 10° ESE daylight
24 May - 11:21:32 10° WSW 11:26:21 22° SSW 11:31:17 10° SSE daylight
25 May - 06:41:19 10° SW 06:46:21 23° SSE 06:51:18 10° ESE daylight
25 May - 08:33:59 10° WSW 08:39:35 31° S 08:45:11 10° ESE daylight
25 May - 10:27:42 10° WSW 10:32:50 25° SSW 10:38:02 10° SE daylight
25 May - 12:23:43 10° SW 12:25:54 12° SSW 12:28:07 10° S daylight
26 May - 05:48:10 10° SSW 05:52:50 20° SSE 05:57:23 10° ESE daylight
26 May - 07:40:26 10° SW 07:46:02 30° S 07:51:34 10° ESE daylight
26 May - 09:33:56 10° WSW 09:39:18 28° S 09:44:41 10° SE daylight
26 May - 11:28:54 10° SW 11:32:24 15° SSW 11:35:58 10° S daylight
27 May - 04:55:13 10° SSW 04:59:18 17° SSE 05:03:18 10° ESE visible
27 May - 06:46:55 10° SW 06:52:29 29° S 06:57:56 10° ESE daylight
27 May - 08:40:13 10° WSW 08:45:46 30° S 08:51:15 10° SE daylight
27 May - 10:34:38 10° WSW 10:38:55 19° SSW 10:43:14 10° SSE daylight
28 May - 04:02:38 10° S 04:05:46 13° SSE 04:08:51 10° SE visible
28 May - 05:53:27 10° SW 05:58:56 26° SSE 06:04:14 10° ESE daylight
28 May - 07:46:32 10° WSW 07:52:13 31° S 07:57:48 10° ESE daylight
28 May - 09:40:36 10° WSW 09:45:25 22° SSW 09:50:14 10° SSE daylight
29 May - 03:11:23 10° SSE 03:12:14 10° SSE 03:13:04 10° SE visible
29 May - 05:00:05 10° SW 05:05:22 24° SSE 05:10:29 10° ESE visible
29 May - 06:52:51 10° WSW 06:58:40 31° S 07:04:17 10° ESE daylight
29 May - 08:46:41 10° WSW 08:51:54 25° SSW 08:57:03 10° SE daylight
29 May - 10:42:42 10° SW 10:44:56 12° SSW 10:47:09 10° S daylight
30 May - 04:06:49 10° SSW 04:11:48 21° SSE 04:16:35 10° ESE visible
30 May - 05:59:12 10° SW 06:05:04 31° S 06:10:44 10° ESE daylight
30 May - 07:52:51 10° WSW 07:58:22 28° S 08:03:47 10° SE daylight
30 May - 09:47:50 10° WSW 09:51:28 15° SSW 09:55:04 10° SSE daylight
31 May - 03:13:47 10° SSW 03:18:13 17° SSE 03:22:30 10° ESE visible
31 May - 05:05:35 10° SW 05:11:29 29° S 05:17:08 10° ESE visible
31 May - 06:59:01 10° WSW 07:04:49 31° S 07:10:26 10° SE daylight
31 May - 08:53:31 10° WSW 08:57:59 19° SSW 09:02:23 10° SSE daylight
